#timestamp,LO_Frequency,Hit 
1505840415.8,286046996.8,N
1505840435.7,286046999.6,N
1505840455.5,286046998.8,N
1505840475.3,286046999.0,N
1505840495.2,286046997.0,N
1505840515.9,286046998.0,N
1505840535.7,286047000.7,N
1505840555.6,286046998.3,N
1505840575.4,286046999.1,N
1505840595.2,286046998.9,N
1505840615.1,286046997.9,N
1505840616.0,286046997.9,N
1505840635.8,286046999.9,N
1505840655.6,286046999.6,N
1505840675.5,286047001.1,N
1505840695.3,286046996.6,N
1505840715.1,286046996.8,N
1505840735.9,286046995.6,N
1505840755.7,286046996.1,N
1505840775.5,286046996.4,N
1505840795.3,286046994.5,N
1505840815.2,286046995.5,N
1505840835.0,286046997.1,N
1505840835.9,286046997.1,N
1505840855.7,286046997.8,N
1505840875.6,286046998.7,N
1505840895.4,286047000.4,N
1505840915.2,286047002.4,N
1505840935.1,286046998.6,N
1505840936.0,286046998.6,N
1505840955.8,286046999.4,N
1505840975.6,286046997.5,N
1505840995.5,286046995.4,N
1505841015.3,286046995.7,N
1505841035.1,286046997.8,N
1505841055.9,286046996.6,N
1505841075.7,286046998.4,N
1505841095.5,286046996.6,N
1505841115.3,286046998.7,N
1505841135.2,286047001.4,N
1505841155.0,286047000.9,N
1505841155.9,286047000.9,N
1505841175.7,286046998.1,N
1505841195.6,286047001.1,N
1505841215.4,286046998.9,N
1505841235.2,286046999.2,N
1505841255.1,286047000.8,N
1505841256.0,286047000.8,N
1505841275.8,286047001.7,N
1505841295.6,286047003.6,N
1505841315.5,286047001.6,N
1505841335.3,286047001.8,N
1505841355.1,286047004.4,N
1505841375.9,286047001.3,N
1505841395.7,286047001.8,N
1505841415.5,286047003.2,N
1505841435.4,286047004.2,N
1505841455.2,286047001.9,N
1505841475.0,286047002.2,N
1505841475.9,286047002.2,N
1505841495.8,286047002.3,N
1505841515.6,286047001.4,N
1505841535.4,286047003.5,N
1505841555.3,286047004.1,N
1505841575.1,286047004.5,N
1505841576.0,286047004.5,N
1505841595.8,286047008.8,P
1505841615.7,286047004.9,N
1505841635.5,286047003.6,N
1505841655.3,286047002.1,N
1505841675.2,286047002.2,N
1505841695.9,286047000.8,N
1505841715.7,286047005.0,N
1505841735.6,286047008.8,P
1505841755.4,286047001.5,N
1505841775.2,286046998.8,N
1505841795.1,286047002.0,N
1505841796.0,286047002.0,N
1505841815.8,286047000.3,N
1505841835.6,286046999.5,N
1505841855.5,286046996.9,N
1505841875.3,286046997.8,N
1505841895.1,286046996.7,N
1505841915.8,286046997.2,N
1505841935.7,286046998.4,N
1505841955.5,286047001.1,N
1505841975.3,286047003.9,N
1505841995.2,286047007.3,N
1505842015.9,286047010.6,P
1505842035.7,286047011.7,N
1505842055.6,286047006.1,N
1505842075.4,286047006.8,N
1505842095.2,286047004.2,N
1505842115.1,286047004.4,N
1505842116.0,286047004.4,N
1505842135.8,286047004.1,N
1505842155.6,286047001.8,N
1505842175.5,286046998.4,N
1505842195.3,286046997.3,N
1505842215.1,286046998.7,N
1505842235.9,286046997.5,N
1505842255.7,286046995.1,N
1505842275.5,286046998.1,N
1505842295.4,286046997.8,N
1505842315.2,286046996.1,N
1505842335.0,286046995.8,N
1505842335.9,286046995.8,N
1505842355.7,286046997.9,N
1505842375.6,286046995.3,N
1505842395.4,286046997.5,N
1505842415.2,286047000.7,N
1505842435.1,286047002.3,N
1505842436.0,286047002.3,N
1505842455.8,286047001.0,N
1505842475.6,286047000.7,N
1505842495.5,286047000.5,N
1505842515.3,286047000.8,N
1505842535.1,286046998.8,N
1505842555.9,286046998.2,N
1505842575.7,286046997.2,N
1505842595.5,286046998.0,N
1505842615.4,286046999.6,N
1505842635.2,286047001.9,N
1505842655.0,286047002.4,N
1505842655.9,286047002.4,N
1505842675.8,286046998.7,N
1505842695.6,286046996.8,N
1505842715.4,286046997.7,N
1505842735.2,286046997.3,N
1505842755.1,286047001.7,N
1505842756.0,286047001.7,N
1505842775.8,286047005.0,N
1505842795.6,286047006.4,N
1505842815.5,286047007.1,N
1505842835.3,286047003.7,N
1505842855.1,286047000.4,N
1505842875.9,286046999.3,N
1505842895.7,286046999.4,N
1505842915.5,286046999.8,N
1505842935.4,286047002.7,N
1505842955.2,286046999.8,N
1505842975.0,286047000.1,N
1505842975.9,286047000.1,N
1505842995.8,286047000.3,N
1505843015.6,286047004.7,N
1505843035.4,286047009.1,P
1505843055.3,286047003.5,N
1505843075.1,286047004.0,N
1505843076.0,286047004.0,N
1505843095.8,286047002.6,N
1505843115.7,286047001.0,N
1505843135.5,286047000.0,N
1505843155.3,286047003.3,N
1505843175.1,286047001.7,N
1505843195.9,286047002.5,N
1505843215.7,286047001.0,N
1505843235.5,286047001.0,N
1505843255.4,286047001.0,N
1505843275.2,286046998.1,N
1505843295.0,286046998.6,N
1505843295.9,286046998.6,N
1505843315.8,286046998.2,N
1505843335.6,286047000.0,N
1505843355.4,286047004.4,N
1505843375.3,286047006.2,N
1505843395.1,286047005.6,N
1505843396.0,286047005.6,N
1505843415.8,286047003.3,N
1505843435.7,286047001.8,N
1505843455.5,286047000.0,N
1505843475.3,286047000.5,N
1505843495.1,286047001.1,N
1505843515.9,286046998.3,N
1505843535.7,286047002.6,N
1505843555.5,286047003.1,N
1505843575.4,286047008.2,P
1505843595.2,286047006.6,N
1505843615.0,286047004.1,N
1505843615.9,286047004.1,N
1505843635.8,286047004.0,N
1505843655.6,286047006.5,P
1505843675.5,286047001.1,N
1505843695.3,286047004.7,N
1505843715.1,286047005.6,N
1505843735.9,286047007.5,P
1505843755.7,286047005.6,P
1505843775.5,286047008.7,P
1505843795.4,286047015.2,P
1505843815.2,286047003.7,N
1505843835.0,286046999.3,N
1505843835.9,286046999.3,N
1505843855.8,286046993.5,N
1505843875.6,286046994.0,N
1505843895.4,286046991.4,N
1505843915.2,286046990.7,N
1505843935.1,286046990.7,N
1505843936.0,286046990.7,N
1505843955.8,286046990.4,N
1505843975.6,286046989.3,N
1505843995.5,286046995.6,N
